Find Starlink 34792

NORAD ID: 65085 Int'l Des: 2025-167 Owner: SPXS Country: US Constellation: starlink decayed
LEOCIRCULAR

Re-entered — Apr 24, 2026

3D地球を読み込み中...

About Starlink 34792

Starlink 34792 (NORAD 65085) is a starlink constellation satellite (v2 mini) launched Aug 4, 2025 by SPXS of US. It re-entered the atmosphere on Apr 24, 2026. with a mass of 575.00 kg.

高度履歴

Loading altitude history...

軌道要素

1 65085U 25167H 26114.62890870 .13990808 12055-4 34324-2 0 9992
2 65085 53.1513 166.7276 0001898 300.8496 59.2360 16.28529761 40607
Epoch: Apr 24, 2026 • Age: 3629 hours

現在のステータス

Position data unavailable
打ち上げ日 Aug 4, 2025
運用期間 1.1 years
落下予定日 Apr 24, 2026
タイプ internet

技術仕様

分類 Payload
質量 575.00 kg
乾燥質量 530.00 kg
長さ 0.30 m
スパン 29.00 m
形状 ? Box + pan
製造者 SPXS
バスタイプ Starlink V2MO
フェーズステータス Unknown Transfer Status
所有者/国 SPXS/US

Most Searched